Time,TemperatureF,DewpointF,PressureIn,WindDirection,WindDirectionDegrees,WindSpeedMPH,WindSpeedGustMPH,Humidity,HourlyPrecipIn,Conditions,Clouds,dailyrainin,SolarRadiationWatts/m^2,SoftwareType,DateUTC
2013-02-23 00:02:00,32.8,29.0,29.77,East,79,0.0,3.0,84,0.00,,,0.00,0,weatherlink.com 1.10,2013-02-23 05:02:00,
2013-02-23 00:17:00,32.8,28.0,29.77,ENE,68,2.0,4.0,83,0.00,,,0.00,0,weatherlink.com 1.10,2013-02-23 05:17:00,
2013-02-23 00:32:00,32.9,29.0,29.77,East,80,0.0,5.0,84,0.00,,,0.00,0,weatherlink.com 1.10,2013-02-23 05:32:00,
2013-02-23 00:47:00,32.9,29.0,29.77,East,92,0.0,3.0,84,0.00,,,0.00,0,weatherlink.com 1.10,2013-02-23 05:47:00,
2013-02-23 01:02:00,33.0,29.0,29.77,SSE,167,0.0,4.0,84,0.00,,,0.00,0,weatherlink.com 1.10,2013-02-23 06:02:00,
2013-02-23 01:17:00,32.8,29.0,29.77,ESE,113,0.0,2.0,84,0.00,,,0.00,0,weatherlink.com 1.10,2013-02-23 06:17:00,
2013-02-23 01:32:00,32.8,29.0,29.77,ESE,117,0.0,3.0,85,0.00,,,0.00,0,weatherlink.com 1.10,2013-02-23 06:32:00,
2013-02-23 01:47:00,32.8,29.0,29.76,ENE,76,0.0,2.0,85,0.00,,,0.00,0,weatherlink.com 1.10,2013-02-23 06:47:00,
2013-02-23 02:02:00,32.8,29.0,29.75,ENE,63,1.0,2.0,85,0.00,,,0.00,0,weatherlink.com 1.10,2013-02-23 07:02:00,
2013-02-23 02:17:00,32.8,29.0,29.75,NE,56,0.0,4.0,85,0.00,,,0.00,0,weatherlink.com 1.10,2013-02-23 07:17:00,
2013-02-23 02:32:00,32.7,29.0,29.74,NE,51,3.0,3.0,85,0.00,,,0.00,0,weatherlink.com 1.10,2013-02-23 07:32:00,
2013-02-23 02:47:00,32.7,29.0,29.73,ENE,61,1.0,3.0,86,0.00,,,0.00,0,weatherlink.com 1.10,2013-02-23 07:47:00,
2013-02-23 03:02:00,32.6,29.0,29.72,ESE,103,1.0,2.0,86,0.00,,,0.00,0,weatherlink.com 1.10,2013-02-23 08:02:00,
2013-02-23 03:17:00,32.6,29.0,29.71,SE,124,0.0,3.0,87,0.00,,,0.00,0,weatherlink.com 1.10,2013-02-23 08:17:00,
2013-02-23 03:32:00,32.6,29.0,29.71,ENE,65,1.0,3.0,87,0.00,,,0.00,0,weatherlink.com 1.10,2013-02-23 08:32:00,
2013-02-23 03:48:00,32.6,29.0,29.71,East,101,0.0,7.0,87,0.00,,,0.00,0,weatherlink.com 1.10,2013-02-23 08:48:00,
2013-02-23 04:02:00,32.6,29.0,29.71,East,90,1.0,5.0,87,0.00,,,0.00,0,weatherlink.com 1.10,2013-02-23 09:02:00,
2013-02-23 04:18:00,32.7,29.0,29.71,East,90,0.0,3.0,87,0.00,,,0.00,0,weatherlink.com 1.10,2013-02-23 09:18:00,
2013-02-23 04:32:00,32.7,29.0,29.70,East,89,2.0,5.0,87,0.00,,,0.00,0,weatherlink.com 1.10,2013-02-23 09:32:00,
2013-02-23 04:46:00,32.7,30.0,29.70,East,91,0.0,6.0,88,0.00,,,0.00,0,weatherlink.com 1.10,2013-02-23 09:46:00,
2013-02-23 05:03:00,32.8,30.0,29.69,East,82,5.0,5.0,88,0.00,,,0.00,0,weatherlink.com 1.10,2013-02-23 10:03:00,
2013-02-23 05:18:00,32.8,30.0,29.69,ENE,61,1.0,3.0,88,0.00,,,0.00,0,weatherlink.com 1.10,2013-02-23 10:18:00,
2013-02-23 05:31:00,32.8,30.0,29.68,East,88,1.0,5.0,88,0.00,,,0.00,0,weatherlink.com 1.10,2013-02-23 10:31:00,
2013-02-23 05:47:00,32.6,30.0,29.68,East,79,2.0,6.0,90,0.00,,,0.00,0,weatherlink.com 1.10,2013-02-23 10:47:00,
2013-02-23 06:03:00,32.5,30.0,29.68,ENE,68,0.0,3.0,91,0.00,,,0.00,0,weatherlink.com 1.10,2013-02-23 11:03:00,
2013-02-23 06:17:00,32.6,30.0,29.67,East,88,3.0,6.0,91,0.00,,,0.00,0,weatherlink.com 1.10,2013-02-23 11:17:00,
2013-02-23 06:33:00,32.7,30.0,29.67,East,84,0.0,5.0,91,0.00,,,0.00,0,weatherlink.com 1.10,2013-02-23 11:33:00,
2013-02-23 06:47:00,32.7,31.0,29.68,ENE,76,0.0,5.0,92,0.00,,,0.00,0,weatherlink.com 1.10,2013-02-23 11:47:00,
2013-02-23 07:02:00,32.6,31.0,29.68,East,82,2.0,5.0,92,0.00,,,0.00,0,weatherlink.com 1.10,2013-02-23 12:02:00,
2013-02-23 07:17:00,32.7,31.0,29.67,East,92,0.0,5.0,92,0.00,,,0.00,9,weatherlink.com 1.10,2013-02-23 12:17:00,
2013-02-23 07:33:00,32.7,31.0,29.66,ENE,69,2.0,5.0,93,0.00,,,0.00,14,weatherlink.com 1.10,2013-02-23 12:33:00,
2013-02-23 07:48:00,32.9,31.0,29.66,ENE,69,3.0,7.0,93,0.00,,,0.00,19,weatherlink.com 1.10,2013-02-23 12:48:00,
2013-02-23 08:03:00,33.1,31.0,29.66,East,79,2.0,6.0,93,0.00,,,0.00,25,weatherlink.com 1.10,2013-02-23 13:03:00,
2013-02-23 08:18:00,33.3,32.0,29.65,East,79,0.0,5.0,93,0.00,,,0.00,25,weatherlink.com 1.10,2013-02-23 13:18:00,
2013-02-23 08:33:00,33.5,32.0,29.65,ENE,74,3.0,7.0,93,0.00,,,0.00,32,weatherlink.com 1.10,2013-02-23 13:33:00,
2013-02-23 08:48:00,33.8,32.0,29.65,SE,127,1.0,10.0,93,0.00,,,0.00,35,weatherlink.com 1.10,2013-02-23 13:48:00,
2013-02-23 09:03:00,34.1,32.0,29.64,NE,49,2.0,5.0,92,0.00,,,0.00,44,weatherlink.com 1.10,2013-02-23 14:03:00,
2013-02-23 09:18:00,34.2,32.0,29.64,ENE,69,1.0,4.0,92,0.00,,,0.00,33,weatherlink.com 1.10,2013-02-23 14:18:00,
2013-02-23 09:33:00,34.4,32.0,29.63,East,85,2.0,6.0,92,0.00,,,0.00,42,weatherlink.com 1.10,2013-02-23 14:33:00,
2013-02-23 09:48:00,34.6,33.0,29.62,ENE,63,2.0,5.0,92,0.00,,,0.00,53,weatherlink.com 1.10,2013-02-23 14:48:00,
2013-02-23 10:03:00,34.8,33.0,29.61,ENE,69,4.0,6.0,93,0.00,,,0.00,54,weatherlink.com 1.10,2013-02-23 15:03:00,
2013-02-23 10:18:00,35.0,33.0,29.60,ENE,76,2.0,5.0,93,0.00,,,0.00,56,weatherlink.com 1.10,2013-02-23 15:18:00,
2013-02-23 10:33:00,35.2,33.0,29.60,ESE,102,2.0,4.0,93,0.00,,,0.00,49,weatherlink.com 1.10,2013-02-23 15:33:00,
2013-02-23 10:48:00,35.3,34.0,29.59,East,82,1.0,8.0,93,0.00,,,0.00,67,weatherlink.com 1.10,2013-02-23 15:48:00,
2013-02-23 11:03:00,35.5,34.0,29.60,ENE,70,0.0,5.0,93,0.00,,,0.00,44,weatherlink.com 1.10,2013-02-23 16:03:00,
2013-02-23 11:18:00,35.6,34.0,29.59,East,101,1.0,5.0,94,0.00,,,0.00,54,weatherlink.com 1.10,2013-02-23 16:18:00,
2013-02-23 11:33:00,35.9,34.0,29.58,NE,43,4.0,8.0,94,0.00,,,0.00,77,weatherlink.com 1.10,2013-02-23 16:33:00,
2013-02-23 11:48:00,36.3,35.0,29.57,East,92,1.0,5.0,94,0.00,,,0.00,90,weatherlink.com 1.10,2013-02-23 16:48:00,
2013-02-23 12:03:00,36.6,35.0,29.56,East,90,2.0,5.0,94,0.00,,,0.00,95,weatherlink.com 1.10,2013-02-23 17:03:00,
2013-02-23 12:18:00,36.9,35.0,29.55,East,100,2.0,7.0,94,0.00,,,0.00,69,weatherlink.com 1.10,2013-02-23 17:18:00,
2013-02-23 12:33:00,37.1,36.0,29.54,East,80,1.0,5.0,94,0.00,,,0.00,83,weatherlink.com 1.10,2013-02-23 17:33:00,
2013-02-23 12:48:00,37.4,36.0,29.54,East,80,0.0,9.0,94,0.00,,,0.00,84,weatherlink.com 1.10,2013-02-23 17:48:00,
2013-02-23 13:03:00,37.7,36.0,29.53,East,89,2.0,8.0,94,0.00,,,0.00,105,weatherlink.com 1.10,2013-02-23 18:03:00,
2013-02-23 13:18:00,37.9,37.0,29.53,ENE,78,5.0,9.0,95,0.00,,,0.00,91,weatherlink.com 1.10,2013-02-23 18:18:00,
2013-02-23 13:33:00,37.9,37.0,29.52,ENE,72,2.0,11.0,95,0.00,,,0.00,65,weatherlink.com 1.10,2013-02-23 18:33:00,
2013-02-23 13:48:00,38.0,37.0,29.51,East,91,1.0,7.0,95,0.00,,,0.00,88,weatherlink.com 1.10,2013-02-23 18:48:00,
2013-02-23 14:04:00,38.0,37.0,29.51,ESE,104,4.0,8.0,95,0.00,,,0.00,90,weatherlink.com 1.10,2013-02-23 19:04:00,
2013-02-23 14:19:00,37.9,37.0,29.50,North,5,3.0,8.0,95,0.00,,,0.00,56,weatherlink.com 1.10,2013-02-23 19:19:00,
2013-02-23 14:34:00,37.9,37.0,29.50,ESE,108,9.0,10.0,95,0.00,,,0.00,62,weatherlink.com 1.10,2013-02-23 19:34:00,
2013-02-23 14:49:00,37.8,37.0,29.50,ENE,78,1.0,7.0,95,0.00,,,0.00,46,weatherlink.com 1.10,2013-02-23 19:49:00,
2013-02-23 15:04:00,37.7,36.0,29.50,ESE,110,0.0,9.0,95,0.01,,,0.01,39,weatherlink.com 1.10,2013-02-23 20:04:00,
2013-02-23 15:19:00,37.5,36.0,29.50,ENE,67,3.0,5.0,95,0.01,,,0.01,63,weatherlink.com 1.10,2013-02-23 20:19:00,
2013-02-23 15:34:00,37.5,36.0,29.49,ENE,74,4.0,9.0,95,0.02,,,0.02,58,weatherlink.com 1.10,2013-02-23 20:34:00,
2013-02-23 15:49:00,37.3,36.0,29.48,ENE,61,5.0,11.0,95,0.02,,,0.02,51,weatherlink.com 1.10,2013-02-23 20:49:00,
2013-02-23 16:04:00,37.2,36.0,29.48,NNW,328,4.0,9.0,95,0.01,,,0.02,33,weatherlink.com 1.10,2013-02-23 21:04:00,
2013-02-23 16:19:00,36.9,36.0,29.48,East,88,5.0,9.0,95,0.01,,,0.02,16,weatherlink.com 1.10,2013-02-23 21:19:00,
2013-02-23 16:49:00,36.4,35.0,29.48,ENE,57,9.0,10.0,95,0.00,,,0.02,11,weatherlink.com 1.10,2013-02-23 21:49:00,
2013-02-23 17:04:00,35.9,35.0,29.46,East,96,3.0,11.0,95,0.00,,,0.02,11,weatherlink.com 1.10,2013-02-23 22:04:00,
2013-02-23 17:19:00,35.6,34.0,29.46,ENE,65,5.0,11.0,95,0.00,,,0.02,5,weatherlink.com 1.10,2013-02-23 22:19:00,
2013-02-23 17:34:00,35.4,34.0,29.46,NE,48,10.0,12.0,95,0.00,,,0.02,0,weatherlink.com 1.10,2013-02-23 22:34:00,
2013-02-23 17:49:00,35.0,34.0,29.45,ENE,71,7.0,13.0,95,0.00,,,0.02,0,weatherlink.com 1.10,2013-02-23 22:49:00,
2013-02-23 18:04:00,34.8,34.0,29.45,East,97,3.0,12.0,95,0.00,,,0.02,0,weatherlink.com 1.10,2013-02-23 23:04:00,
2013-02-23 18:19:00,34.6,33.0,29.45,ESE,108,7.0,14.0,95,0.00,,,0.00,0,weatherlink.com 1.10,2013-02-23 23:19:00,
2013-02-23 18:34:00,34.6,33.0,29.45,ENE,69,7.0,10.0,95,0.00,,,0.00,0,weatherlink.com 1.10,2013-02-23 23:34:00,
2013-02-23 18:49:00,34.5,33.0,29.45,East,95,5.0,11.0,95,0.00,,,0.00,0,weatherlink.com 1.10,2013-02-23 23:49:00,
2013-02-23 19:04:00,34.4,33.0,29.45,East,98,1.0,11.0,95,0.00,,,0.00,0,weatherlink.com 1.10,2013-02-24 00:04:00,
2013-02-23 19:19:00,34.5,33.0,29.44,ENE,62,5.0,10.0,95,0.00,,,0.00,0,weatherlink.com 1.10,2013-02-24 00:19:00,
2013-02-23 19:34:00,34.3,33.0,29.43,East,95,6.0,13.0,95,0.00,,,0.00,0,weatherlink.com 1.10,2013-02-24 00:34:00,
2013-02-23 19:49:00,34.3,33.0,29.42,ENE,72,9.0,13.0,95,0.00,,,0.00,0,weatherlink.com 1.10,2013-02-24 00:49:00,
2013-02-23 20:04:00,34.5,33.0,29.42,East,86,5.0,13.0,95,0.00,,,0.00,0,weatherlink.com 1.10,2013-02-24 01:04:00,
2013-02-23 20:19:00,34.5,33.0,29.41,East,93,3.0,12.0,95,0.00,,,0.00,0,weatherlink.com 1.10,2013-02-24 01:19:00,
2013-02-23 20:34:00,34.5,33.0,29.41,ENE,78,5.0,9.0,95,0.00,,,0.00,0,weatherlink.com 1.10,2013-02-24 01:34:00,
2013-02-23 20:49:00,34.7,34.0,29.40,ENE,63,1.0,8.0,95,0.00,,,0.00,0,weatherlink.com 1.10,2013-02-24 01:49:00,
2013-02-23 21:05:00,34.8,34.0,29.40,ENE,67,5.0,7.0,95,0.00,,,0.00,0,weatherlink.com 1.10,2013-02-24 02:05:00,
2013-02-23 21:19:00,35.0,34.0,29.39,ENE,77,3.0,7.0,95,0.00,,,0.00,0,weatherlink.com 1.10,2013-02-24 02:19:00,
2013-02-23 21:34:00,35.0,34.0,29.39,ENE,68,3.0,4.0,95,0.00,,,0.00,0,weatherlink.com 1.10,2013-02-24 02:34:00,
2013-02-23 21:49:00,35.0,34.0,29.37,ENE,64,2.0,6.0,95,0.00,,,0.00,0,weatherlink.com 1.10,2013-02-24 02:49:00,
2013-02-23 22:04:00,35.2,34.0,29.36,ENE,66,1.0,5.0,95,0.00,,,0.00,0,weatherlink.com 1.10,2013-02-24 03:04:00,
2013-02-23 22:19:00,35.2,34.0,29.35,ENE,57,3.0,8.0,95,0.00,,,0.00,0,weatherlink.com 1.10,2013-02-24 03:19:00,
2013-02-23 22:34:00,35.3,34.0,29.35,East,87,2.0,5.0,95,0.00,,,0.00,0,weatherlink.com 1.10,2013-02-24 03:34:00,
2013-02-23 22:49:00,35.3,34.0,29.35,NW,317,0.0,3.0,95,0.00,,,0.00,0,weatherlink.com 1.10,2013-02-24 03:49:00,
2013-02-23 23:05:00,35.2,34.0,29.34,ENE,68,3.0,4.0,95,0.00,,,0.00,0,weatherlink.com 1.10,2013-02-24 04:05:00,
2013-02-23 23:20:00,35.2,34.0,29.33,ENE,61,1.0,6.0,95,0.00,,,0.00,0,weatherlink.com 1.10,2013-02-24 04:20:00,
2013-02-23 23:35:00,35.1,34.0,29.33,East,80,0.0,3.0,95,0.00,,,0.00,0,weatherlink.com 1.10,2013-02-24 04:35:00,
2013-02-23 23:50:00,35.0,34.0,29.32,NE,44,0.0,3.0,95,0.00,,,0.00,0,weatherlink.com 1.10,2013-02-24 04:50:00,